Location: Worth Mountain WMA
(34.9569°N, 81.4819°W)
Time: 03:18:49
(UTC-04:00)

Daily predictions for brighter satellites

Satellite Brightness Start Highest point End
(mag) Time Altitude Azimuth Time Altitude Azimuth Time Altitude Azimuth
CZ-3 R/B 4.1 03:41:42 10° W 04:37:50 69° SSW 04:49:21 10° ESE
USA 267 3.6 04:36:19 10° ESE 04:42:04 61° ENE 04:42:04 61° ENE
CZ-4C R/B 3.8 04:40:23 27° N 04:44:07 45° NE 04:51:42 10° SE
Cosmos 1943 Rocket 4.1 04:47:54 21° NNE 04:47:54 21° NNE 04:49:43 10° NNE
ADEOS II 3.8 04:50:22 10° NNE 04:52:28 25° NNE 04:52:28 25° NNE
Okean O Rocket 3.0 05:04:26 10° NNE 05:07:32 36° ENE 05:07:32 36° ENE
Cosmos 1758 Rocket 4.4 05:18:13 48° ENE 05:18:13 48° ENE 05:22:00 10° NNE
Cosmos 2154 Rocket 4.5 05:12:06 10° N 05:18:22 59° E 05:24:33 10° SSE
Cosmos 44 Rocket 3.6 05:20:56 64° ENE 05:20:56 64° ENE 05:25:40 10° SE
Cosmos 2369 Rocket 4.3 05:28:59 13° NNW 05:28:59 13° NNW 05:29:53 10° N
Meteor 2-19 Rocket 4.3 05:26:10 10° N 05:32:21 81° W 05:38:30 10° S
Cosmos 1610 Rocket 4.3 05:33:43 10° N 05:39:51 70° W 05:45:55 10° S
Meteor 1-31 Rocket 3.5 05:39:11 10° NNE 05:42:54 50° E 05:46:35 10° S
RUBIN 8/PSLV 4.4 05:39:53 10° N 05:44:10 83° WNW 05:44:10 83° WNW
Milstar 3 3.2 05:43:13 38° SW 05:45:11 48° S 05:52:37 10° ESE
Cosmos 1707 4.0 05:51:04 30° N 05:51:04 30° N 05:53:12 10° N
Cosmos 1833 4.1 05:50:59 34° NW 05:53:16 59° WSW 05:58:44 10° S
Cosmos 2219 4.3 05:51:01 10° N 05:56:27 45° ENE 06:01:48 10° SE
Cosmos 962 Rocket 4.4 05:50:31 10° N 05:56:41 87° E 06:02:47 10° S
Meteor 2-5 Rocket 3.8 05:52:35 10° S 05:58:31 87° E 06:04:23 10° N
APEX 3.4 05:57:23 31° NNW 05:59:14 87° ENE 06:04:07 10° SSE
PAYLOAD B 4.4 06:02:11 10° N 06:07:28 49° WNW 06:12:44 10° SW
GPS 2-04 Rocket1 2.5 06:07:14 53° WSW 06:07:53 66° SSW 06:11:31 10° ESE
Cosmos 2181 Rocket 3.9 06:01:40 10° S 06:07:56 78° W 06:14:08 10° N
Cosmos 2341 Rocket 3.9 06:02:13 10° N 06:08:37 77° W 06:14:59 10° S
Cosmos 1953 Rocket 4.0 06:09:02 38° WNW 06:09:02 38° WNW 06:12:49 10° N
USA 81 4.1 06:05:24 10° S 06:10:39 81° E 06:15:57 10° N
Cosmos 1656 Rocket 4.3 06:09:35 32° W 06:10:47 35° WNW 06:15:57 10° N
SJ 16-02 1.3 06:07:26 10° SSW 06:11:50 83° ESE 06:16:15 10° NNE
NOSS 3-1 (C) 3.5 06:10:27 27° WSW 06:13:21 51° NW 06:19:27 10° NNE
OAO 2 Rocket 3.2 06:12:44 33° W 06:14:59 83° S 06:19:58 10° ESE
CZ-4B DEB 4.5 06:09:57 10° N 06:15:07 44° WNW 06:20:18 10° SW
NOSS 3-1 (A) 3.3 06:14:02 15° SW 06:18:48 66° WNW 06:25:04 10° NNE
Cosmos 1809 Rocket 4.3 06:13:12 10° N 06:19:18 75° W 06:25:25 10° S
Meteor 1-16 Rocket 4.2 06:15:52 10° NNW 06:21:34 75° W 06:27:22 10° S
CZ-4B R/B 4.3 06:21:12 10° N 06:25:31 48° WNW 06:29:50 10° SSW
USA 267 4.1 06:20:22 10° S 06:25:57 30° SW 06:29:27 19° W
Landsat 4 3.7 06:23:54 10° S 06:27:37 58° WSW 06:31:21 10° NNW
Cosmos 1356 Rocket 3.9 06:24:01 10° SSW 06:27:59 39° WNW 06:32:02 10° N
Cosmos 1943 Rocket 4.2 06:29:28 10° NW 06:29:28 10° NW 06:29:32 10° NW
CZ-4B R/B 3.8 06:25:45 10° N 06:30:39 35° WNW 06:35:36 10° SW
CZ-4C R/B 3.4 06:25:50 10° NW 06:32:44 40° WSW 06:40:06 10° S
ADEOS II 4.0 06:32:42 10° NW 06:33:24 11° NW 06:33:24 11° NW
Tiangong 2 1.2 06:32:51 23° NW 06:34:42 73° NNE 06:37:53 10° ESE
Cosmos 1356 3.3 06:31:27 10° SSW 06:34:54 69° W 06:38:23 10° N
USA 116 3.5 06:32:43 10° S 06:36:04 57° W 06:39:50 10° NNW
Cosmos 1269 Rocket 4.3 06:31:45 10° NNW 06:37:04 74° ENE 06:42:20 10° SSE
Meteor 1-28 Rocket 3.2 06:36:24 10° S 06:40:08 59° W 06:43:55 10° NNW
Meteor 2-21 Rocket 4.4 06:36:35 10° NNW 06:42:35 63° W 06:48:34 10° S
Okean O Rocket 3.2 06:42:10 10° NNW 06:44:36 15° WNW 06:44:59 15° WNW
IDEFIX/ARIANE 42P 3.0 06:42:33 10° NNE 06:47:47 68° ESE 06:52:57 10° S
Cosmos 372 Rocket 4.4 06:44:08 10° SW 06:48:58 39° WNW 06:53:52 10° N
CZ-2C R/B 4.3 06:44:43 10° SSW 06:49:08 38° W 06:53:34 10° NNW
Shenzhou-11 Module 3.2 06:54:22 13° W 06:56:33 28° SW 06:59:14 10° SSE
Cosmos 2278 4.0 06:51:14 10° SSW 06:56:51 76° ESE 07:02:30 10° NNE
Okean-O 2.9 06:54:17 10° N 06:58:30 44° WNW 07:02:41 10° SW
Cosmos 1125 Rocket 4.3 06:54:40 10° SW 06:59:10 29° WNW 07:03:44 10° N
Cosmos-2242 4.1 06:56:47 10° NW 07:00:08 22° W 07:03:29 10° SW
PAYLOAD A 3.8 06:56:07 10° N 07:00:50 79° WNW 07:05:39 10° SSW
Cosmos 2366 rocket 4.0 06:56:28 10° NNW 07:02:30 60° W 07:08:33 10° S
Meteor 1-24 Rocket 4.3 06:57:32 10° SW 07:03:10 41° WNW 07:08:46 10° N
NOAA 6 4.3 06:59:12 10° N 07:04:07 46° WNW 07:09:00 10° SW
